SCC50EF EGPH-EGLL

Flight info

Callsign SCC50EF
Flight time N/A
Altitude 33000
Route GOSAM DCT FENIK L612 VAMEB DCT NUGRA
Aircraft A306/H-SDE3FGHIRWY/LB1

Departure

Time 2026-05-07 21:45
Airport Edinburgh Airport (EGPH)

Arrival

Time N/A
Airport London Heathrow Airport (EGLL)
Time Latitude Longitude Altitude Speed Heading
2026-05-07 21:28 55.94994 -3.34753 118 ft 0 kts 28°
2026-05-07 21:39 55.94974 -3.34773 118 ft 4 kts 28°
2026-05-07 21:39 55.94949 -3.34803 118 ft 4 kts 57°
2026-05-07 21:39 55.94942 -3.34829 118 ft 4 kts 95°
2026-05-07 21:39 55.94951 -3.34872 117 ft 4 kts 124°
2026-05-07 21:40 55.94960 -3.34897 115 ft 0 kts 118°
2026-05-07 21:41 55.94958 -3.34890 115 ft 1 kts 118°
2026-05-07 21:41 55.94951 -3.34867 117 ft 3 kts 120°
2026-05-07 21:41 55.94936 -3.34847 117 ft 3 kts 153°
2026-05-07 21:42 55.94887 -3.34858 121 ft 15 kts 201°
2026-05-07 21:42 55.94835 -3.34970 118 ft 9 kts 281°
2026-05-07 21:42 55.94873 -3.35103 119 ft 22 kts 298°
2026-05-07 21:42 55.94980 -3.35453 118 ft 36 kts 298°
2026-05-07 21:43 55.95099 -3.35808 120 ft 31 kts 302°
2026-05-07 21:43 55.95217 -3.35975 118 ft 14 kts
2026-05-07 21:43 55.95280 -3.35850 117 ft 14 kts 58°
2026-05-07 21:43 55.95333 -3.35694 118 ft 15 kts 59°
2026-05-07 21:44 55.95389 -3.35525 120 ft 16 kts 59°
2026-05-07 21:44 55.95465 -3.35414 121 ft 14 kts 353°
2026-05-07 21:44 55.95497 -3.35439 117 ft 2 kts 330°
2026-05-07 21:44 55.95537 -3.35484 116 ft 13 kts 320°
2026-05-07 21:45 55.95498 -3.35782 116 ft 56 kts 239°
2026-05-07 21:45 55.95127 -3.36877 116 ft 144 kts 239°
2026-05-07 21:45 55.94524 -3.38660 699 ft 177 kts 238°
2026-05-07 21:45 55.93867 -3.40603 1921 ft 185 kts 234°
2026-05-07 21:46 55.93222 -3.42468 3451 ft 182 kts 236°
2026-05-07 21:46 55.92486 -3.44565 4392 ft 218 kts 237°
2026-05-07 21:46 55.91638 -3.46995 5490 ft 240 kts 237°
2026-05-07 21:46 55.90777 -3.49636 6775 ft 252 kts 243°
2026-05-07 21:47 55.90254 -3.52630 8154 ft 259 kts 256°
2026-05-07 21:47 55.89929 -3.55729 9627 ft 262 kts 258°
2026-05-07 21:47 55.89617 -3.58993 10833 ft 274 kts 259°
2026-05-07 21:47 55.89262 -3.62504 11437 ft 302 kts 256°
2026-05-07 21:48 55.88589 -3.66235 11910 ft 328 kts 249°
2026-05-07 21:48 55.87695 -3.70128 12357 ft 350 kts 246°
2026-05-07 21:48 55.86657 -3.74160 13042 ft 363 kts 245°
2026-05-07 21:48 55.85562 -3.78186 13893 ft 369 kts 244°
2026-05-07 21:49 55.84415 -3.82319 14727 ft 374 kts 244°
2026-05-07 21:49 55.83252 -3.86503 15599 ft 378 kts 244°
2026-05-07 21:49 55.82084 -3.90725 16492 ft 382 kts 244°
2026-05-07 21:49 55.80926 -3.94937 17366 ft 385 kts 244°
2026-05-07 21:50 55.79752 -3.99226 18242 ft 388 kts 244°
2026-05-07 21:50 55.78564 -4.03567 18921 ft 392 kts 245°
2026-05-07 21:50 55.77362 -4.07963 19543 ft 396 kts 245°
2026-05-07 21:50 55.76150 -4.12385 20156 ft 400 kts 245°
2026-05-07 21:51 55.74828 -4.16772 20744 ft 406 kts 238°
2026-05-07 21:51 55.72979 -4.20601 21340 ft 413 kts 225°
2026-05-07 21:51 55.70567 -4.23351 21883 ft 424 kts 208°
2026-05-07 21:51 55.67682 -4.24744 22382 ft 437 kts 191°
2026-05-07 21:52 55.64603 -4.24612 22895 ft 449 kts 175°
2026-05-07 21:52 55.61549 -4.23196 23391 ft 459 kts 163°
2026-05-07 21:52 55.58647 -4.20735 23818 ft 467 kts 153°
2026-05-07 21:52 55.56008 -4.17413 24217 ft 474 kts 143°
2026-05-07 21:53 55.53583 -4.13436 24616 ft 478 kts 140°
2026-05-07 21:53 55.50965 -4.09791 24994 ft 477 kts 148°
2026-05-07 21:53 55.48165 -4.06592 25386 ft 478 kts 151°
2026-05-07 21:53 55.45342 -4.03601 25719 ft 480 kts 152°
2026-05-07 21:54 55.42442 -4.00688 26105 ft 481 kts 153°
2026-05-07 21:54 55.39504 -3.97830 26457 ft 483 kts 154°
2026-05-07 21:54 55.36545 -3.94994 26773 ft 485 kts 154°
2026-05-07 21:54 55.33564 -3.92151 27108 ft 486 kts 154°
2026-05-07 21:55 55.30592 -3.89314 27587 ft 484 kts 154°
2026-05-07 21:55 55.27669 -3.86520 28056 ft 483 kts 154°
2026-05-07 21:55 55.24710 -3.83688 28509 ft 482 kts 154°
2026-05-07 21:55 55.21771 -3.80875 28963 ft 482 kts 154°
2026-05-07 21:56 55.18829 -3.78061 29442 ft 480 kts 154°
2026-05-07 21:56 55.15936 -3.75296 29962 ft 478 kts 154°
2026-05-07 21:56 55.13004 -3.72497 30391 ft 478 kts 154°
2026-05-07 21:56 55.10089 -3.69720 30804 ft 476 kts 154°
2026-05-07 21:57 55.07171 -3.66947 31248 ft 475 kts 154°
2026-05-07 21:57 55.04301 -3.64224 31674 ft 474 kts 154°
2026-05-07 21:57 55.01407 -3.61483 31964 ft 474 kts 154°
2026-05-07 21:57 54.98510 -3.58746 32009 ft 473 kts 154°
2026-05-07 21:58 54.92711 -3.53278 32006 ft 473 kts 153°
2026-05-07 21:58 54.86958 -3.47870 32005 ft 472 kts 153°
2026-05-07 21:59 54.81167 -3.42443 32010 ft 472 kts 153°
2026-05-07 21:59 54.75388 -3.37047 32009 ft 472 kts 153°
2026-05-07 22:00 54.69569 -3.31892 32005 ft 471 kts 156°
2026-05-07 22:00 54.63585 -3.27388 32014 ft 470 kts 159°
2026-05-07 22:01 54.57546 -3.23002 32014 ft 471 kts 159°
2026-05-07 22:01 54.51545 -3.18591 32022 ft 471 kts 158°
2026-05-07 22:02 54.45520 -3.14119 32017 ft 471 kts 158°
2026-05-07 22:02 54.39535 -3.09673 32028 ft 469 kts 158°
2026-05-07 22:03 54.33539 -3.05232 32028 ft 469 kts 158°
2026-05-07 22:03 54.27541 -3.00810 32028 ft 469 kts 158°
2026-05-07 22:04 54.21564 -2.96420 32034 ft 469 kts 158°
2026-05-07 22:04 54.15556 -2.92020 32026 ft 469 kts 157°
2026-05-07 22:05 54.09602 -2.87673 32042 ft 468 kts 157°
2026-05-07 22:05 54.03597 -2.83302 32037 ft 469 kts 158°
2026-05-07 22:06 53.97476 -2.79454 32033 ft 469 kts 163°
2026-05-07 22:06 53.91282 -2.76132 32031 ft 468 kts 163°
2026-05-07 22:07 53.85056 -2.72833 32025 ft 467 kts 163°
2026-05-07 22:07 53.78852 -2.69562 32035 ft 468 kts 163°
2026-05-07 22:08 53.72612 -2.66284 32042 ft 469 kts 163°
2026-05-07 22:08 53.66424 -2.63045 32036 ft 467 kts 162°
2026-05-07 22:09 53.60200 -2.59796 32039 ft 467 kts 162°
2026-05-07 22:09 53.54030 -2.56585 32037 ft 467 kts 162°